Спрингфилд

США     39°48′00″N   89°39′23″W
темп.,
°C
ветер,
м/с
пор.,
м/с
влажн.,
%
обл.,
%
осадки,
мм/ч
давл.,
гПа
погр.,
м
19 апреля, пн
пн1901:00+8зюз36830 0.0 101396
04:00+6зюз410851 0.0 1013182
07:00+6зюз4108113 0.0 1013214
10:00+13з7115478 0.0 1013768
13:00+16з7105284 0.0 10131686
16:00+10ссз886868 0.0 1014801
19:00+6ссз6975100 0.0 1017749
22:00+4ссз5872100 0.0 1019671
20 апреля, вт
вт2001:00+3ссз4779100 0.0 1019562
04:00+4с3673100 0.0 1019478
07:00+3с4675100 0.1 1019848
10:00+1с5898100 2.2 1021401
13:00+1с4799100 6.5 1020436
16:00+1ссз47100100 3.5 1019425
19:00+1ссз489594 4.5 1019640
22:00−1сз36945 0.0 1021104
21 апреля, ср
ср2101:00−2з36965 0.0 1021109
04:00−2з39930 0.0 1021148
07:00−2зсз39895 0.0 1023177
10:00+4зсз47695 0.0 1024533
13:00+8зсз454692 0.0 10231739
16:00+9зюз344499 0.0 10211871
19:00+5юз4685100 0.1 1021404
22:00+3всв119796 2.2 1021275
22 апреля, чт
чт2201:00+3св499296 3.7 1022323
04:000зсз36950 0.0 1023129
07:000зсз36895 0.0 1024158
10:00+6зсз35545 0.0 1025827
13:00+10зсз564588 0.0 10242020
16:00+12з454263 0.0 10221974
19:00+10зюз356010 0.0 1022103
22:00+6юз336794 0.0 102327
23 апреля, пт
пт2301:00+5ююз357213 0.0 102382
04:00+5ю387499 0.0 1022149
07:00+5ююз377985 0.0 1022178
10:00+8ююз5871100 0.0 1021552
13:00+7ю41089100 0.9 1020523
16:00+8ююв4985100 0.3 1017565
19:00+7юв4994100 2.6 1016337
22:00+7юв41194100 0.6 1015359